GW1187 Weather Reports


time (UTC)temp
C
wind
direction
speed
KPH
gust
KPH
rain 1hr
cm
rain 24hr
cm
rain mn
cm
humidity
%
barometer
mb
20260507040054 9 143 1.6 6.4 0.00 0.48 0.00 89 1007.4
20260507034551 10 0 0.0 4.8 0.00 0.48 0.48 90 1007.0
20260507033051 10 0 0.0 3.2 0.00 0.48 0.48 91 1006.9
20260507031543 10 0 0.0 0.0 0.03 0.48 0.48 91 1006.7
20260507030043 11 0 0.0 0.0 0.03 0.48 0.48 91 1006.6
20260507024541 11 0 0.0 3.2 0.05 0.48 0.48 90 1006.5
20260507023050 12 131 0.0 8.0 0.05 0.48 0.48 89 1006.7
20260507021547 12 136 0.0 6.4 0.03 0.46 0.46 90 1006.9
20260507020114 13 0 1.6 11.3 0.03 0.46 0.46 92 1006.0
20260507014553 13 0 0.0 4.8 0.00 0.43 0.43 91 1005.8
20260507013054 13 0 0.0 6.4 0.00 0.43 0.43 92 1005.7
20260507011547 14 346 0.0 6.4 0.00 0.43 0.43 93 1005.4
20260507010050 14 36 8.0 17.7 0.00 0.43 0.43 92 1005.3
20260507004553 14 76 4.8 16.1 0.00 0.46 0.43 92 1005.3
20260507003051 14 18 1.6 8.0 0.00 0.46 0.43 92 1005.0
20260507001545 14 359 1.6 6.4 0.00 0.46 0.43 92 1004.8
20260507000050 14 29 1.6 6.4 0.00 0.46 0.43 92 1004.8
20260506234551 14 40 1.6 8.0 0.00 0.46 0.43 92 1004.7
20260506233101 14 20 1.6 6.4 0.00 0.46 0.43 92 1004.4
20260506231553 14 39 1.6 6.4 0.00 0.46 0.43 92 1004.5
20260506230047 14 0 3.2 16.1 0.00 0.46 0.43 92 1004.7
20260506224541 14 29 3.2 9.7 0.00 0.46 0.43 92 1004.6
20260506223049 14 22 6.4 12.9 0.00 0.46 0.43 91 1004.8
20260506221549 14 307 0.0 11.3 0.00 0.46 0.43 91 1004.7
20260506220046 15 63 4.8 17.7 0.00 0.46 0.43 90 1004.8
20260506214550 15 30 9.7 22.5 0.00 0.46 0.43 90 1004.8
20260506213057 15 346 8.0 19.3 0.03 0.46 0.43 90 1004.8
20260506211543 15 300 3.2 17.7 0.03 0.46 0.43 91 1004.7
20260506210048 15 16 4.8 17.7 0.03 0.46 0.43 91 1004.7
20260506204541 15 0 1.6 20.9 0.05 0.46 0.43 92 1004.8
20260506203047 15 36 6.4 14.5 0.08 0.43 0.41 92 1004.9
20260506201546 15 11 6.4 12.9 0.13 0.43 0.41 92 1005.1
20260506200042 15 46 3.2 11.3 0.15 0.43 0.41 92 1005.5
20260506194549 15 5 4.8 12.9 0.13 0.41 0.38 92 1005.5
20260506193046 15 21 4.8 11.3 0.10 0.36 0.33 91 1005.7
20260506191546 15 32 1.6 14.5 0.08 0.30 0.28 91 1005.7
20260506190047 16 352 1.6 9.7 0.05 0.28 0.25 91 1005.8
20260506184551 16 333 4.8 11.3 0.10 0.28 0.25 91 1005.5
20260506183052 16 0 0.0 1.6 0.15 0.25 0.23 91 1005.9
20260506181609 15 32 0.0 4.8 0.18 0.23 0.20 91 1006.4
20260506180048 15 35 1.6 3.2 0.20 0.23 0.20 90 1006.9
20260506174545 15 37 0.0 1.6 0.15 0.18 0.15 89 1006.8
20260506173058 16 0 0.0 4.8 0.08 0.10 0.08 86 1007.3
20260506171544 16 52 1.6 8.0 0.03 0.05 0.03 83 1007.3
20260506170042 17 4 4.8 19.3 0.00 0.03 0.00 78 1007.3
20260506164548 17 26 8.0 24.1 0.00 0.03 0.00 75 1007.2
20260506163047 17 27 11.3 27.4 0.00 0.03 0.00 73 1007.2
20260506161548 17 352 6.4 19.3 0.00 0.03 0.00 73 1007.5
20260506160052 17 27 6.4 22.5 0.00 0.03 0.00 73 1007.6
20260506154547 18 359 8.0 27.4 0.00 0.03 0.00 72 1007.9
20260506153104 17 25 6.4 19.3 0.00 0.03 0.00 73 1008.0
20260506151544 17 1 6.4 20.9 0.00 0.03 0.00 73 1008.4
20260506150057 18 355 8.0 20.9 0.00 0.03 0.00 72 1008.3
20260506144555 18 360 12.9 25.7 0.00 0.03 0.00 70 1008.3
20260506143045 18 51 6.4 19.3 0.00 0.03 0.00 71 1008.2
20260506141543 18 10 6.4 25.7 0.00 0.03 0.00 71 1008.1
20260506140051 17 338 6.4 20.9 0.00 0.03 0.00 73 1007.9
20260506134540 17 350 6.4 19.3 0.00 0.03 0.00 73 1007.6
20260506133049 17 10 6.4 17.7 0.00 0.03 0.00 74 1007.9
20260506131553 17 23 4.8 9.7 0.00 0.03 0.00 76 1008.3
20260506130047 17 3 6.4 12.9 0.00 0.03 0.00 77 1008.3
20260506124546 16 335 8.0 17.7 0.00 0.03 0.00 77 1008.4
20260506123041 16 310 8.0 29.0 0.00 0.03 0.00 78 1008.6
20260506121539 16 52 6.4 16.1 0.00 0.03 0.00 79 1008.4
20260506120048 16 46 3.2 8.0 0.00 0.03 0.00 79 1008.5
20260506114547 15 338 4.8 12.9 0.00 0.03 0.00 79 1008.8
20260506113046 15 326 4.8 16.1 0.00 0.03 0.00 80 1008.7
20260506111545 15 8 4.8 12.9 0.00 0.03 0.00 80 1008.8
20260506110041 15 341 3.2 12.9 0.00 0.03 0.00 80 1008.9
20260506104542 15 17 4.8 11.3 0.00 0.03 0.00 81 1008.9
20260506103053 14 39 3.2 8.0 0.00 0.03 0.00 81 1008.9
20260506101547 13 33 1.6 6.4 0.00 0.03 0.00 82 1008.7
20260506100045 14 37 3.2 9.7 0.00 0.03 0.00 81 1008.6
20260506094545 14 42 3.2 9.7 0.00 0.03 0.00 81 1008.6
20260506093041 14 29 3.2 6.4 0.00 0.03 0.00 80 1008.5
20260506091554 14 13 3.2 8.0 0.00 0.03 0.00 80 1008.5
20260506090056 14 21 3.2 9.7 0.00 0.03 0.00 79 1008.6
20260506084551 14 33 4.8 6.4 0.00 0.03 0.00 79 1008.6
20260506083047 14 22 3.2 6.4 0.00 0.03 0.00 78 1008.6
20260506081543 15 25 4.8 8.0 0.00 0.03 0.00 76 1008.8
20260506073048 16 29 6.4 12.9 0.00 0.03 0.00 72 1008.8
20260506071549 16 25 3.2 14.5 0.00 0.03 0.00 71 1008.9
20260506061544 16 0 4.8 8.0 0.00 0.03 0.00 68 1008.4
20260506044552 17 20 1.6 8.0 0.00 0.03 0.00 65 1008.9
20260506043047 16 0 0.0 6.4 0.00 0.03 0.00 65 1008.8
20260506041547 16 0 1.6 6.4 0.00 0.03 0.00 66 1008.9